When you browse on this site, cookies collect data to enhance your experience and personalize the content and advertising you see.
Visit our Privacy Policy to learn more. By continuing to use the site, you agree to this use of cookies and data.
  • In Spain
  • List of Countries
  • For 7 days
  • Water Temperature
  • Weather Map
  • Weather Widgets
  • user-avatar
    Login

    Hourly Weather Leiria

    Today, 3 June, Wednesday

    Time Temperature Precipitation Wind Pressure Humidity
    00:00 +15°C° 0 mm 0 mps 753 mmHg 96%
    01:00 +15°C° 0 mm 0 mps 753 mmHg 96%
    02:00 +15°C° 0 mm 0 mps 752 mmHg 96%
    03:00 +15°C° 0 mm 0 mps 752 mmHg 95%
    04:00 +15°C° 0 mm 0 mps 752 mmHg 95%
    05:00 +15°C° 0 mm 0 mps 751 mmHg 94%
    06:00 +19°C° 0 mm 1 mps 752 mmHg 85%
    07:00 +21°C° 0 mm 1 mps 752 mmHg 77%
    08:00 +23°C° 0 mm 1 mps 752 mmHg 68%
    09:00 +24°C° 0 mm 2 mps 752 mmHg 65%
    10:00 +25°C° 0 mm 2 mps 752 mmHg 62%
    11:00 +25°C° 0 mm 3 mps 752 mmHg 59%
    12:00 +26°C° 0 mm 3 mps 751 mmHg 58%
    13:00 +26°C° 0 mm 3 mps 751 mmHg 56%
    14:00 +26°C° 0 mm 4 mps 751 mmHg 55%
    15:00 +25°C° 0 mm 4 mps 750 mmHg 60%
    16:00 +23°C° 0 mm 4 mps 750 mmHg 64%
    17:00 +22°C° 0 mm 4 mps 750 mmHg 69%
    18:00 +20°C° 0 mm 3 mps 750 mmHg 77%
    19:00 +18°C° 0 mm 2 mps 750 mmHg 86%
    20:00 +18°C° 0 mm 1 mps 751 mmHg 94%
    21:00 +18°C° 0 mm 1 mps 751 mmHg 95%
    22:00 +16°C° 0 mm 1 mps 750 mmHg 96%
    23:00 +16°C° 0 mm 1 mps 750 mmHg 97%

    Tomorrow, 4 June, Thursday

    Time Temperature Precipitation Wind Pressure Humidity
    00:00 +16°C° 0 mm 1 mps 750 mmHg 97%
    01:00 +16°C° 0 mm 1 mps 750 mmHg 97%
    02:00 +16°C° 0 mm 1 mps 749 mmHg 97%
    03:00 +16°C° 0 mm 1 mps 749 mmHg 97%
    04:00 +15°C° 0 mm 0 mps 749 mmHg 96%
    05:00 +15°C° 0 mm 0 mps 749 mmHg 96%
    06:00 +19°C° 0 mm 1 mps 749 mmHg 87%
    07:00 +20°C° 0 mm 2 mps 750 mmHg 78%
    08:00 +23°C° 0 mm 2 mps 750 mmHg 69%
    09:00 +24°C° 0 mm 3 mps 750 mmHg 64%
    10:00 +25°C° 0 mm 4 mps 750 mmHg 59%
    11:00 +26°C° 0 mm 4 mps 750 mmHg 54%
    12:00 +25°C° 0 mm 5 mps 750 mmHg 51%
    13:00 +25°C° 0 mm 5 mps 750 mmHg 47%
    14:00 +25°C° 0 mm 5 mps 750 mmHg 43%
    15:00 +23°C° 0 mm 5 mps 750 mmHg 49%
    16:00 +22°C° 0 mm 5 mps 750 mmHg 55%
    17:00 +21°C° 0 mm 5 mps 750 mmHg 60%
    18:00 +19°C° 0 mm 5 mps 751 mmHg 69%
    19:00 +17°C° 0 mm 4 mps 751 mmHg 77%
    20:00 +14°C° 0 mm 3 mps 752 mmHg 86%
    21:00 +14°C° 0 mm 3 mps 752 mmHg 89%
    22:00 +13°C° 0 mm 3 mps 752 mmHg 92%
    23:00 +14°C° 0 mm 2 mps 752 mmHg 95%

    Day after tomorrow, 5 June, Friday

    Time Temperature Precipitation Wind Pressure Humidity
    00:00 +14°C° 0 mm 2 mps 752 mmHg 96%
    01:00 +13°C° 0 mm 3 mps 752 mmHg 96%
    02:00 +13°C° 0 mm 3 mps 752 mmHg 97%
    03:00 +13°C° 0 mm 3 mps 752 mmHg 96%
    04:00 +14°C° 0 mm 3 mps 752 mmHg 96%
    05:00 +14°C° 0 mm 3 mps 752 mmHg 96%
    06:00 +17°C° 0 mm 3 mps 752 mmHg 87%
    07:00 +19°C° 0 mm 3 mps 752 mmHg 77%
    08:00 +21°C° 0 mm 4 mps 753 mmHg 68%
    09:00 +22°C° 0 mm 4 mps 753 mmHg 63%
    10:00 +22°C° 0 mm 4 mps 753 mmHg 58%
    11:00 +23°C° 0 mm 4 mps 753 mmHg 53%
    12:00 +23°C° 0 mm 5 mps 753 mmHg 53%
    13:00 +23°C° 0 mm 5 mps 753 mmHg 53%
    14:00 +22°C° 0 mm 5 mps 752 mmHg 52%
    15:00 +21°C° 0 mm 5 mps 752 mmHg 58%
    16:00 +20°C° 0 mm 5 mps 752 mmHg 63%
    17:00 +19°C° 0 mm 5 mps 752 mmHg 69%
    18:00 +18°C° 0 mm 4 mps 752 mmHg 77%
    19:00 +15°C° 0 mm 4 mps 753 mmHg 86%
    20:00 +14°C° 0 mm 3 mps 753 mmHg 94%
    21:00 +14°C° 0 mm 3 mps 753 mmHg 93%
    22:00 +14°C° 0 mm 3 mps 753 mmHg 92%
    23:00 +15°C° 0 mm 2 mps 753 mmHg 92%

    6 June, Saturday

    Time Temperature Precipitation Wind Pressure Humidity
    00:00 +15°C° 0 mm 2 mps 753 mmHg 89%
    01:00 +16°C° 0 mm 3 mps 753 mmHg 86%
    02:00 +16°C° 0 mm 3 mps 753 mmHg 84%
    03:00 +16°C° 0 mm 3 mps 752 mmHg 84%
    04:00 +16°C° 0 mm 2 mps 752 mmHg 84%
    05:00 +16°C° 0 mm 2 mps 752 mmHg 84%
    06:00 +17°C° 0 mm 2 mps 753 mmHg 79%
    07:00 +18°C° 0 mm 3 mps 753 mmHg 74%
    08:00 +19°C° 0 mm 3 mps 753 mmHg 69%
    09:00 +20°C° 0 mm 3 mps 753 mmHg 67%
    10:00 +21°C° 0 mm 3 mps 753 mmHg 65%
    11:00 +21°C° 0 mm 3 mps 753 mmHg 63%
    12:00 +22°C° 0 mm 4 mps 752 mmHg 61%
    13:00 +22°C° 0 mm 4 mps 752 mmHg 60%
    14:00 +22°C° 0 mm 4 mps 752 mmHg 58%
    15:00 +22°C° 0 mm 4 mps 752 mmHg 62%
    16:00 +21°C° 0 mm 4 mps 752 mmHg 65%
    17:00 +20°C° 0 mm 4 mps 752 mmHg 69%
    18:00 +19°C° 0 mm 4 mps 752 mmHg 77%
    19:00 +17°C° 0 mm 3 mps 752 mmHg 85%
    20:00 +16°C° 0 mm 3 mps 752 mmHg 92%
    21:00 +14°C° 0 mm 3 mps 752 mmHg 93%
    22:00 +14°C° 0 mm 3 mps 752 mmHg 94%
    23:00 +14°C° 0 mm 3 mps 752 mmHg 95%

    7 June, Sunday

    Time Temperature Precipitation Wind Pressure Humidity
    00:00 +13°C° 0 mm 3 mps 752 mmHg 95%
    01:00 +14°C° 0 mm 2 mps 752 mmHg 96%
    02:00 +14°C° 0 mm 2 mps 752 mmHg 96%
    03:00 +14°C° 0 mm 2 mps 752 mmHg 95%
    04:00 +15°C° 0 mm 2 mps 752 mmHg 94%
    05:00 +15°C° 0 mm 2 mps 753 mmHg 93%
    06:00 +16°C° 0 mm 3 mps 753 mmHg 84%
    07:00 +18°C° 0 mm 3 mps 753 mmHg 76%
    08:00 +20°C° 0 mm 4 mps 753 mmHg 67%
    09:00 +21°C° 0 mm 4 mps 754 mmHg 64%
    10:00 +21°C° 0 mm 4 mps 754 mmHg 61%
    11:00 +22°C° 0 mm 4 mps 754 mmHg 58%
    12:00 +22°C° 0 mm 5 mps 754 mmHg 57%
    13:00 +23°C° 0 mm 5 mps 754 mmHg 56%
    14:00 +23°C° 0 mm 5 mps 754 mmHg 56%
    15:00 +22°C° 0 mm 6 mps 754 mmHg 57%
    16:00 +21°C° 0 mm 6 mps 754 mmHg 59%
    17:00 +20°C° 0 mm 6 mps 754 mmHg 61%
    18:00 +17°C° 0 mm 5 mps 754 mmHg 69%
    19:00 +16°C° 0 mm 5 mps 754 mmHg 77%
    20:00 +14°C° 0 mm 4 mps 755 mmHg 85%
    21:00 +14°C° 0 mm 5 mps 755 mmHg 85%
    22:00 +14°C° 0 mm 5 mps 755 mmHg 85%
    23:00 +13°C° 0 mm 5 mps 755 mmHg 85%

    8 June, Monday

    Time Temperature Precipitation Wind Pressure Humidity
    00:00 +13°C° 0 mm 4 mps 755 mmHg 87%
    01:00 +13°C° 0 mm 4 mps 755 mmHg 89%
    02:00 +13°C° 0 mm 4 mps 754 mmHg 91%
    03:00 +13°C° 0 mm 4 mps 754 mmHg 91%
    04:00 +13°C° 0 mm 4 mps 754 mmHg 92%
    05:00 +13°C° 0 mm 4 mps 754 mmHg 92%
    06:00 +15°C° 0 mm 4 mps 754 mmHg 84%
    07:00 +17°C° 0 mm 5 mps 755 mmHg 77%
    08:00 +20°C° 0 mm 5 mps 755 mmHg 69%
    09:00 +21°C° 0 mm 5 mps 755 mmHg 65%
    10:00 +22°C° 0 mm 5 mps 755 mmHg 61%
    11:00 +23°C° 0 mm 6 mps 755 mmHg 57%
    12:00 +23°C° 0 mm 6 mps 754 mmHg 57%
    13:00 +22°C° 0 mm 6 mps 754 mmHg 57%
    14:00 +22°C° 0 mm 6 mps 754 mmHg 57%
    15:00 +21°C° 0 mm 6 mps 754 mmHg 59%
    16:00 +20°C° 0 mm 6 mps 753 mmHg 62%
    17:00 +19°C° 0 mm 6 mps 753 mmHg 64%
    18:00 +17°C° 0 mm 6 mps 754 mmHg 70%
    19:00 +15°C° 0 mm 5 mps 754 mmHg 76%
    20:00 +14°C° 0 mm 5 mps 754 mmHg 83%
    21:00 +13°C° 0 mm 4 mps 754 mmHg 85%
    22:00 +13°C° 0 mm 4 mps 754 mmHg 87%
    23:00 +13°C° 0 mm 4 mps 754 mmHg 90%
    Show more